When you browse on this site, cookies collect data to enhance your experience and personalize the content and advertising you see.
Visit our Privacy Policy to learn more. By continuing to use the site, you agree to this use of cookies and data.
  • In Schweiz
  • Länderverzeichnis
  • Für 7 Tage
  • Wassertemperatur
  • Satellitenkarten
  • Wetterkarte
  • Widgets
  • user-avatar
    Anmelden

    Stündliche Wetter Giumri

    Heute, 16 Juni, Sonntag

    Zeit Temperatur Niederschläge Wind Luftdruck Luftfeuchtigkeit
    00:00 +14°C° 0.3 mm 1 m/S 634 mmHg 82%
    01:00 +14°C° 0 mm 1 m/S 634 mmHg 82%
    02:00 +13°C° 0 mm 0 m/S 634 mmHg 82%
    03:00 +12°C° 0 mm 0 m/S 634 mmHg 82%
    04:00 +13°C° 0 mm 0 m/S 634 mmHg 80%
    05:00 +14°C° 0 mm 0 m/S 634 mmHg 79%
    06:00 +15°C° 0 mm 0 m/S 634 mmHg 78%
    07:00 +18°C° 0 mm 1 m/S 634 mmHg 72%
    08:00 +20°C° 0 mm 1 m/S 635 mmHg 67%
    09:00 +22°C° 0 mm 1 m/S 635 mmHg 61%
    10:00 +23°C° 0.2 mm 1 m/S 635 mmHg 57%
    11:00 +24°C° 0.2 mm 2 m/S 635 mmHg 53%
    12:00 +25°C° 0.2 mm 2 m/S 635 mmHg 49%
    13:00 +26°C° 0.1 mm 2 m/S 635 mmHg 48%
    14:00 +26°C° 0.1 mm 2 m/S 635 mmHg 46%
    15:00 +27°C° 0.1 mm 2 m/S 635 mmHg 44%
    16:00 +26°C° 0.1 mm 2 m/S 635 mmHg 49%
    17:00 +26°C° 0.1 mm 1 m/S 634 mmHg 54%
    18:00 +25°C° 0.1 mm 1 m/S 634 mmHg 58%
    19:00 +23°C° 0.3 mm 1 m/S 634 mmHg 63%
    20:00 +19°C° 0.3 mm 2 m/S 633 mmHg 67%
    21:00 +17°C° 0.3 mm 2 m/S 633 mmHg 72%
    22:00 +16°C° 0.4 mm 2 m/S 633 mmHg 73%
    23:00 +15°C° 0.4 mm 1 m/S 633 mmHg 75%

    Morgen, 17 Juni, Montag

    Zeit Temperatur Niederschläge Wind Luftdruck Luftfeuchtigkeit
    00:00 +15°C° 0.4 mm 1 m/S 632 mmHg 77%
    01:00 +15°C° 0.1 mm 1 m/S 632 mmHg 76%
    02:00 +14°C° 0.1 mm 1 m/S 632 mmHg 76%
    03:00 +14°C° 0.1 mm 1 m/S 632 mmHg 76%
    04:00 +15°C° 0 mm 1 m/S 632 mmHg 75%
    05:00 +16°C° 0 mm 1 m/S 632 mmHg 75%
    06:00 +16°C° 0 mm 0 m/S 632 mmHg 74%
    07:00 +20°C° 0 mm 1 m/S 633 mmHg 69%
    08:00 +22°C° 0 mm 1 m/S 634 mmHg 63%
    09:00 +23°C° 0 mm 1 m/S 634 mmHg 58%
    10:00 +25°C° 0.1 mm 1 m/S 634 mmHg 53%
    11:00 +26°C° 0.1 mm 1 m/S 634 mmHg 49%
    12:00 +27°C° 0.1 mm 1 m/S 634 mmHg 45%
    13:00 +25°C° 0.4 mm 2 m/S 634 mmHg 52%
    14:00 +23°C° 0.4 mm 4 m/S 633 mmHg 58%
    15:00 +21°C° 0.4 mm 5 m/S 633 mmHg 65%
    16:00 +20°C° 0.8 mm 4 m/S 632 mmHg 69%
    17:00 +19°C° 0.8 mm 3 m/S 632 mmHg 73%
    18:00 +18°C° 0.8 mm 2 m/S 632 mmHg 77%
    19:00 +18°C° 0.3 mm 1 m/S 633 mmHg 79%
    20:00 +16°C° 0.3 mm 1 m/S 633 mmHg 81%
    21:00 +15°C° 0.3 mm 1 m/S 634 mmHg 84%
    22:00 +15°C° 0.4 mm 2 m/S 633 mmHg 86%
    23:00 +15°C° 0.4 mm 2 m/S 633 mmHg 88%

    übermorgen, 18 Juni, Dienstag

    Zeit Temperatur Niederschläge Wind Luftdruck Luftfeuchtigkeit
    00:00 +13°C° 0.4 mm 3 m/S 633 mmHg 90%
    01:00 +14°C° 0.2 mm 2 m/S 633 mmHg 89%
    02:00 +13°C° 0.2 mm 1 m/S 632 mmHg 88%
    03:00 +13°C° 0.2 mm 1 m/S 632 mmHg 87%
    04:00 +14°C° 0 mm 1 m/S 632 mmHg 85%
    05:00 +15°C° 0 mm 1 m/S 633 mmHg 83%
    06:00 +15°C° 0 mm 1 m/S 633 mmHg 80%
    07:00 +18°C° 0.1 mm 1 m/S 633 mmHg 75%
    08:00 +20°C° 0.1 mm 1 m/S 634 mmHg 69%
    09:00 +22°C° 0.1 mm 1 m/S 634 mmHg 63%
    10:00 +23°C° 0.3 mm 1 m/S 634 mmHg 59%
    11:00 +24°C° 0.3 mm 2 m/S 634 mmHg 54%
    12:00 +25°C° 0.3 mm 2 m/S 634 mmHg 50%
    13:00 +26°C° 0.2 mm 2 m/S 634 mmHg 48%
    14:00 +26°C° 0.2 mm 1 m/S 634 mmHg 47%
    15:00 +26°C° 0.2 mm 1 m/S 634 mmHg 45%
    16:00 +25°C° 0.4 mm 2 m/S 633 mmHg 52%
    17:00 +22°C° 0.4 mm 3 m/S 633 mmHg 59%
    18:00 +21°C° 0.4 mm 4 m/S 633 mmHg 66%
    19:00 +19°C° 0.3 mm 3 m/S 633 mmHg 71%
    20:00 +18°C° 0.3 mm 3 m/S 633 mmHg 76%
    21:00 +16°C° 0.3 mm 3 m/S 633 mmHg 81%
    22:00 +15°C° 0 mm 2 m/S 633 mmHg 81%
    23:00 +15°C° 0 mm 2 m/S 632 mmHg 81%

    19 Juni, Mittwoch

    Zeit Temperatur Niederschläge Wind Luftdruck Luftfeuchtigkeit
    00:00 +15°C° 0 mm 1 m/S 632 mmHg 81%
    01:00 +14°C° 0 mm 1 m/S 632 mmHg 82%
    02:00 +14°C° 0 mm 1 m/S 632 mmHg 83%
    03:00 +13°C° 0 mm 1 m/S 632 mmHg 84%
    04:00 +14°C° 0 mm 1 m/S 632 mmHg 84%
    05:00 +15°C° 0 mm 1 m/S 632 mmHg 83%
    06:00 +15°C° 0 mm 1 m/S 633 mmHg 82%
    07:00 +18°C° 0.3 mm 1 m/S 633 mmHg 76%
    08:00 +20°C° 0.3 mm 1 m/S 633 mmHg 71%
    09:00 +22°C° 0.3 mm 1 m/S 634 mmHg 65%
    10:00 +23°C° 0.4 mm 1 m/S 634 mmHg 61%
    11:00 +24°C° 0.4 mm 1 m/S 634 mmHg 57%
    12:00 +25°C° 0.4 mm 1 m/S 634 mmHg 52%
    13:00 +25°C° 0.4 mm 2 m/S 634 mmHg 52%
    14:00 +25°C° 0.4 mm 2 m/S 634 mmHg 51%
    15:00 +26°C° 0.4 mm 2 m/S 634 mmHg 50%
    16:00 +25°C° 0.3 mm 3 m/S 633 mmHg 56%
    17:00 +24°C° 0.3 mm 3 m/S 633 mmHg 62%
    18:00 +22°C° 0.3 mm 3 m/S 633 mmHg 68%
    19:00 +20°C° 0.3 mm 3 m/S 633 mmHg 72%
    20:00 +18°C° 0.3 mm 2 m/S 633 mmHg 76%
    21:00 +17°C° 0.3 mm 2 m/S 633 mmHg 79%
    22:00 +16°C° 0.4 mm 2 m/S 633 mmHg 81%
    23:00 +16°C° 0.4 mm 2 m/S 632 mmHg 82%

    20 Juni, Donnerstag

    Zeit Temperatur Niederschläge Wind Luftdruck Luftfeuchtigkeit
    00:00 +15°C° 0.4 mm 2 m/S 632 mmHg 83%
    01:00 +15°C° 0 mm 2 m/S 632 mmHg 83%
    02:00 +14°C° 0 mm 2 m/S 632 mmHg 83%
    03:00 +14°C° 0 mm 1 m/S 631 mmHg 83%
    04:00 +14°C° 0 mm 1 m/S 631 mmHg 82%
    05:00 +15°C° 0 mm 1 m/S 632 mmHg 82%
    06:00 +16°C° 0 mm 1 m/S 632 mmHg 82%
    07:00 +18°C° 0.3 mm 2 m/S 632 mmHg 76%
    08:00 +20°C° 0.3 mm 2 m/S 633 mmHg 69%
    09:00 +23°C° 0.3 mm 2 m/S 633 mmHg 63%
    10:00 +23°C° 0.7 mm 2 m/S 633 mmHg 61%
    11:00 +24°C° 0.7 mm 3 m/S 633 mmHg 59%
    12:00 +25°C° 0.7 mm 4 m/S 633 mmHg 57%
    13:00 +25°C° 0.7 mm 4 m/S 633 mmHg 58%
    14:00 +23°C° 0.7 mm 4 m/S 633 mmHg 59%
    15:00 +23°C° 0.7 mm 4 m/S 632 mmHg 60%
    16:00 +22°C° 0.7 mm 4 m/S 632 mmHg 66%
    17:00 +20°C° 0.7 mm 4 m/S 632 mmHg 73%
    18:00 +19°C° 0.7 mm 3 m/S 632 mmHg 80%
    19:00 +18°C° 1.9 mm 3 m/S 632 mmHg 82%
    20:00 +17°C° 1.9 mm 3 m/S 632 mmHg 84%
    21:00 +15°C° 1.9 mm 2 m/S 632 mmHg 86%
    22:00 +15°C° 0.5 mm 2 m/S 632 mmHg 87%
    23:00 +15°C° 0.5 mm 1 m/S 632 mmHg 87%

    21 Juni, Freitag

    Zeit Temperatur Niederschläge Wind Luftdruck Luftfeuchtigkeit
    00:00 +15°C° 0.5 mm 1 m/S 632 mmHg 88%
    01:00 +14°C° 0 mm 1 m/S 632 mmHg 87%
    02:00 +14°C° 0 mm 1 m/S 631 mmHg 87%
    03:00 +14°C° 0 mm 1 m/S 631 mmHg 87%
    04:00 +14°C° 0 mm 1 m/S 631 mmHg 86%
    05:00 +14°C° 0 mm 1 m/S 632 mmHg 86%
    06:00 +15°C° 0 mm 1 m/S 632 mmHg 85%
    07:00 +17°C° 0.1 mm 2 m/S 632 mmHg 80%
    08:00 +18°C° 0.1 mm 2 m/S 633 mmHg 75%
    09:00 +20°C° 0.1 mm 2 m/S 633 mmHg 70%
    10:00 +21°C° 0.6 mm 3 m/S 633 mmHg 68%
    11:00 +21°C° 0.6 mm 3 m/S 634 mmHg 66%
    12:00 +22°C° 0.6 mm 3 m/S 634 mmHg 65%
    13:00 +22°C° 0.8 mm 4 m/S 634 mmHg 66%
    14:00 +22°C° 0.8 mm 4 m/S 634 mmHg 67%
    15:00 +21°C° 0.8 mm 5 m/S 633 mmHg 69%
    16:00 +21°C° 0.3 mm 5 m/S 633 mmHg 71%
    17:00 +20°C° 0.3 mm 4 m/S 633 mmHg 73%
    18:00 +19°C° 0.3 mm 4 m/S 633 mmHg 76%
    19:00 +18°C° 0.1 mm 4 m/S 633 mmHg 80%
    20:00 +16°C° 0.1 mm 3 m/S 633 mmHg 84%
    21:00 +14°C° 0.1 mm 3 m/S 633 mmHg 89%
    22:00 +13°C° 0 mm 3 m/S 633 mmHg 89%
    23:00 +13°C° 0 mm 3 m/S 633 mmHg 90%
    Mehr zeigen